Location: Battery Park City
(40.7115°N, 74.0163°W)
Time: 23:49:56
(UTC+00:00)

CENTAUR R/B - Pass Details

Date: 08 December 2019
Orbit: 773 x 1415 km, 63.4° (Epoch: 18 January)

Event Time Altitude Azimuth Distance (km) Brightness Sun altitude
Rises 22:16:12 0° 320° (NW) 4,231 6.1 -8.9°
Reaches altitude 10° 22:19:00 10° 316° (NW) 3,331 5.6 -9.4°
Maximum altitude 22:26:51 49° 245° (WSW) 1,735 4.3 -10.8°
Drops below altitude 10° 22:35:08 10° 174° (S) 3,498 5.6 -12.3°
Sets 22:38:10 0° 169° (S) 4,457 6.0 -12.8°
